Wink, TX

11:01 PM CDT on March 26, 2017 (GMT -0500)
Winkler County

Weather History for KINK - January, 2014

Change the Weather History Date:

Sunday, January 5, 2014

  Actual Average Record
Temperature  
Mean Temperature 36 °F -  
Max Temperature 44 °F 56 °F 81 °F (2008)
Min Temperature 28 °F 25 °F 2 °F (1971)
Degree Days  
Heating Degree Days 29    
Moisture  
Dew Point 18 °F    
Average Humidity 51    
Maximum Humidity 70    
Minimum Humidity 29    
Precipitation  
Precipitation 0.00 in - - ()
Sea Level Pressure  
Sea Level Pressure 30.18 in    
Wind  
Wind Speed 16 mph (NE)    
Max Wind Speed 31 mph    
Max Gust Speed 46 mph    
Visibility 10 miles    
Events Snow    
Averages and records for this station are not official NWS values.
T = Trace of Precipitation, MM = Missing Value Source: NWS Daily Summary

Daily Weather History Graph

Daily Weather History Graph

Search for Another Location

Airport or City:

Trip Planner

Search our weather history database for the weather conditions in past years. The results will help you decide how hot, cold, wet, or windy it might be!

Date:

Astronomy

Jan. 05, 2014 Rise Set
Actual Time 7:53 AM CST 6:03 PM CST
Civil Twilight 7:26 AM CST 6:29 PM CST
Nautical Twilight 6:56 AM CST 7:00 PM CST
Astronomical Twilight 6:26 AM CST 7:29 PM CST
Moon 10:55 AM CST (1/5) 11:12 PM CST (1/5)
Length of Visible Light 11h 03m
Length of Day
10h 09m
Waxing Crescent, 25% of the Moon is Illuminated
Jan 5
Waxing Crescent
Jan 7
First Quarter
Jan 15
Full
Jan 23
Last Quarter
Jan 30
New

Hourly Weather History & Observations

Time (CST) Temp. Windchill Dew Point Humidity Pressure Visibility Wind Dir Wind Speed Gust Speed Precip Events Conditions
12:38 AM 44.1 °F 33.8 °F 27.0 °F 51% 29.89 in 10.0 mi NNE 31.1 mph 46.0 mph N/A   Scattered Clouds
12:53 AM 39.0 °F 28.3 °F 27.0 °F 62% 29.86 in 10.0 mi NNE 24.2 mph 44.9 mph N/A   Partly Cloudy
1:53 AM 36.0 °F 25.0 °F 27.0 °F 70% 29.92 in 10.0 mi NNE 20.7 mph 31.1 mph N/A   Clear
2:53 AM 36.0 °F 25.6 °F 26.1 °F 67% 29.98 in 10.0 mi NNE 18.4 mph 28.8 mph N/A   Clear
3:53 AM 35.1 °F 24.1 °F 25.0 °F 67% 30.03 in 10.0 mi North 19.6 mph - N/A   Clear
4:53 AM 33.1 °F 24.4 °F 24.1 °F 70% 30.06 in 10.0 mi North 11.5 mph - N/A   Clear
5:53 AM 32.0 °F 23.6 °F 19.0 °F 59% 30.11 in 10.0 mi North 10.4 mph - N/A   Clear
6:53 AM 30.0 °F 21.1 °F 19.0 °F 64% 30.13 in 10.0 mi North 10.4 mph - N/A   Clear
7:53 AM 28.0 °F 20.8 °F 18.0 °F 66% 30.19 in 10.0 mi North 6.9 mph - N/A   Clear
8:53 AM 28.9 °F 21.9 °F 18.0 °F 64% 30.22 in 10.0 mi NNW 6.9 mph - N/A   Clear
9:53 AM 32.0 °F 23.6 °F 17.1 °F 54% 30.26 in 10.0 mi North 10.4 mph - N/A   Clear
10:53 AM 34.0 °F 26.0 °F 15.1 °F 46% 30.27 in 10.0 mi NNE 10.4 mph 17.3 mph N/A   Clear
11:53 AM 36.0 °F - 15.1 °F 43% 30.26 in 10.0 mi North - - N/A   Clear
12:53 PM 37.0 °F 34.5 °F 15.1 °F 41% 30.25 in 10.0 mi Variable 3.5 mph - N/A   Clear
1:53 PM 39.0 °F 36.8 °F 14.0 °F 36% 30.22 in 10.0 mi Variable 3.5 mph - N/A   Clear
2:53 PM 41.0 °F 35.8 °F 12.9 °F 32% 30.21 in 10.0 mi NE 8.1 mph - N/A   Clear
3:53 PM 42.1 °F 38.4 °F 12.0 °F 29% 30.21 in 10.0 mi NNE 5.8 mph - N/A   Clear
4:53 PM 41.0 °F 37.1 °F 12.0 °F 31% 30.23 in 10.0 mi ENE 5.8 mph - N/A   Clear
5:53 PM 39.0 °F 34.8 °F 12.9 °F 34% 30.25 in 10.0 mi East 5.8 mph - N/A   Clear
6:53 PM 36.0 °F 31.1 °F 14.0 °F 41% 30.28 in 10.0 mi ESE 5.8 mph - N/A   Clear
7:53 PM 34.0 °F 29.8 °F 12.9 °F 42% 30.31 in 10.0 mi ESE 4.6 mph - N/A   Clear
8:53 PM 32.0 °F 24.8 °F 14.0 °F 48% 30.33 in 10.0 mi SE 8.1 mph - 0.00 in   Clear
9:53 PM 32.0 °F 24.8 °F 14.0 °F 48% 30.34 in 9.0 mi ESE 8.1 mph - 0.00 in Snow Light Snow
10:53 PM 30.0 °F 24.1 °F 15.1 °F 54% 30.37 in 9.0 mi ESE 5.8 mph - 0.00 in Snow Light Snow
11:53 PM 30.0 °F 19.1 °F 12.9 °F 49% 30.39 in 10.0 mi East 15.0 mph - 0.00 in   Clear